www.pogodaiklimat.ru
ПОГОДА в Чехалисе
Время
и дата
06:35 22.06
06:55 22.06
07:15 22.06
07:35 22.06
07:55 22.06
08:15 22.06
08:35 22.06
08:55 22.06
09:15 22.06
09:35 22.06
09:55 22.06
10:15 22.06
10:35 22.06
10:55 22.06
11:15 22.06
11:35 22.06
11:55 22.06
12:15 22.06
12:35 22.06
12:55 22.06
13:15 22.06
13:35 22.06
13:55 22.06
14:15 22.06
14:35 22.06
14:55 22.06
15:15 22.06
15:35 22.06
15:55 22.06
16:15 22.06
16:35 22.06
16:55 22.06
17:15 22.06
17:35 22.06
17:55 22.06
18:15 22.06
18:35 22.06
18:55 22.06
19:15 22.06
19:35 22.06
19:55 22.06
20:15 22.06
20:35 22.06
20:55 22.06
21:15 22.06
21:35 22.06
21:55 22.06
22:15 22.06
Ветер
(напр.,м/с)
Видим. Явления Облачность Т
(С)
Тd
(С)
f
(%)
Тe
(С)
Тes
(С)
Комфортность P
(гПа)
Po
(гПа)
Тmin
(С)
Tmax
(С)
R
(мм)
R24
(мм)
S
(см)
штиль 0 16 км ясно +12.0 +10.0 88 +11 +13 1008.0
штиль 0 16 км ясно +13.0 +10.0 82 +13 +15 1008.0
штиль 0 16 км ясно +13.0 +11.0 88 +12 +18 1008.0
штиль 0 16 км ясно +13.0 +10.0 82 +13 +18 1008.0
штиль 0 16 км ясно +13.0 +10.0 82 +13 +18 1008.0
ЮЗ 2 16 км ясно +14.0 +11.0 82 +13 +21 1008.0
штиль 0 16 км ясно +14.0 +11.0 82 +14 +24 1008.0
З 2 16 км ясно +15.0 +10.0 72 +15 +22 1008.0
штиль 0 16 км ясно +15.0 +11.0 77 +15 +30 опасность
простуды
1007.6
штиль 0 16 км ясно +16.0 +11.0 72 +16 +31 опасность
простуды
1007.6
штиль 0 16 км ясно +17.0 +11.0 68 +17 +32 опасность
простуды
1007.6
штиль 0 16 км ясно +18.0 +10.0 59 +18 +38 опасность
простуды
1007.3
штиль 0 16 км ясно +19.0 +9.0 52 +20 +40 опасность
простуды
1007.3
нст 2 16 км ясно +20.0 +4.0 35 +21 +36 комфорт 1007.3
нст 3 16 км ясно +22.0 +4.0 31 +22 +37 комфорт 1007.0
СЗ 4 16 км ясно +22.0 +5.0 33 +22 +34 комфорт 1007.0
нст 2 16 км ясно +23.0 +6.0 33 +23 +41 комфорт 1007.0
ЮЗ 4 16 км ясно +23.0 +6.0 33 +23 +36 комфорт 1006.6
штиль 0 16 км 5/5 1800 м +24.0 +7.0 34 +24 +37 комфорт 1006.6
штиль 0 16 км 2/2 1800 м +24.0 +9.0 38 +25 +45 комфорт 1006.3
нст 3 16 км ясно +24.0 +10.0 41 +25 +40 комфорт 1006.3
С 3 16 км 8/8 1650 м +25.0 +10.0 39 +26 +29 жарко 1006.3
штиль 0 16 км 8/8 1650 м +25.0 +11.0 41 +26 +31 жарко 1006.3
СВ 4 16 км 10/10 1650 м +25.0 +12.0 44 +27 +27 жарко 1006.3
нст 3
{6}
16 км 8/5 1650 m
[Ac]
+24.0 +13.0 50 +26 +30 жарко 1006.3
СЗ 3
{7}
16 км 8/0 2700 m
[Ac]
+24.0 +13.0 50 +26 +32 жарко 1006.3
нст 2
{6}
16 км 5/0 2700 m
[Ac]
+23.0 +13.0 53 +26 +34 жарко 1006.3
штиль 0 16 км ясно +25.0 +13.0 47 +27 +44 жарко 1006.3
СЗ 3
{5}
16 км 2/2 1950 м +23.0 +13.0 53 +26 +34 жарко 1006.3
штиль 0 16 км 8/8 1440 м +23.0 +13.0 53 +26 +28 жарко 1006.3
СЗ 4 16 км 10/10 1410 м +22.0 +13.0 57 +25 +25 комфорт 1006.3
нст 3 16 км 10/8 1800 m
[Ac]
+22.0 +14.0 60 +25 +25 комфорт 1006.3
нст 3 16 км 10/8 1800 m
[Ac]
+21.0 +13.0 60 +24 +24 комфорт 1006.6
нст 3 16 км 10/5 1650 m
[Ac]
+21.0 +14.0 64 +24 +25 комфорт 1006.6
нст 2
{7}
16 км 10/8 1650 m
[Ac]
+21.0 +14.0 64 +25 +25 комфорт 1006.6
СЗ 3 16 км 10/10 1800 м +21.0 +15.0 69 +25 +25 комфорт 1007.0
СЗ 3 16 км 10/8 810 m
[Ac]
+19.0 +15.0 78 +20 +21 1007.3
нст 3 16 км 10/8 810 m
[Ac]
+19.0 +15.0 78 +20 +21 1007.3
нст 2 16 км 10/10 780 м +19.0 +15.0 78 +21 +21 комфорт 1007.6
нст 2 16 км 10/10 750 м +18.0 +15.0 83 +19 +19 1007.6
ЮЗ 2 16 км 10/10 690 м +18.0 +15.0 83 +19 +19 1007.6
ЮЗ 3 16 км 10/10 690 м +17.0 +15.0 88 +17 +17 1007.6
ЮЗ 2 16 км 10/10 720 м +17.0 +15.0 88 +17 +17 1008.0
нст 3 16 км 10/10 900 м +17.0 +15.0 88 +17 +17 1008.0
ЮЗ 3 16 км 10/10 870 м +16.0 +15.0 94 +15 +15 1008.0
З 2 16 км 10/10 960 м +16.0 +15.0 94 +16 +16 1008.3
ЮЗ 3 16 км 10/10 990 м +16.0 +15.0 94 +15 +15 1008.3
нст 3
{5}
16 км 10/10 990 м +16.0 +15.0 94 +15 +15 1008.3
Местоположение метеостанции Chehalis-Centralia Airport: широта 46.6770 долгота -122.9827 высота над уровнем моря 54 м.
В архиве по умолчанию представлена погода в Чехалисе за последние 1-2 суток. Обновление информации о фактической погоде в базе происходит ежечасно! Архивные данные за месяц целиком и за предыдущие месяцы Вы можете получить, выбрав интересующий диапазон дат из раскрывающегося списка и нажав кнопку "Ввод!".
Внимание! Архив погоды МЕТАР в базе сайта по станциям, не включенным в климатический монитор, хранится не более 60 дней. Нет смысла пытаться выбрать более раннюю дату.
*Определитесь, кто Вы:
Внимание! Время в таблицах - местное (без учета летнего времени). Для получения всемирного времени необходимо вычесть поправку, которая равна -8 ч.
Смотрите также архив погоды в соседних городах и на ближайших метеорологических станциях:
Партнеры нашего сайта:      
Пояснения к столбцам:
  • Ветер - указаны скорость ветра в м/с - средняя за 10 мин, порывы в срок и между сроками (в фигурных скобках) и направление, откуда дует ветер: С - северный,
  • СВ - северо-восточный, В - восточный, ЮВ - юго-восточный, Ю - южный, ЮЗ - юго-западный, З - западный, СЗ - северо-западный.
  • Видимость - горизонтальная дальность видимости в метрах или километрах. При видимости от 1 до 10 км при отсутствии осадков обычно наблюдается дымка, при ухудшении видимости до 1 км и менее - туман. В сухую погоду видимость может ухудшаться дымом, пылью или мглою.
  • Явления - указаны атмосферные явления, наблюдавшиеся в срок или в последний час перед сроком; фигурными скобками обозначены явления, наблюдавшиеся между сроками (за 1-3 часа до срока); квадратными скобками обозначены град или гололедные отложения с указанием их диаметра в мм.
  • Облачность - указаны через наклонную черту общая и нижняя облачность в баллах и высота нижней границы облаков в метрах; квадратными скобками обозначены формы облаков: Ci - перистые, Cs - перисто-слоистые, Cc - перисто-кучевые, Ac - высококучевые, As - высокослоистые, Sc - слоисто-кучевые, Ns - слоисто-дождевые, Cu - кучевые, Cb - кучево-дождевые. Подробнее классификацию облаков см. в Атласе облаков (PDF).
  • T - Температура воздуха - температура, измеренная на высоте 2 м над землей.
  • Td - Температура точки росы - температура, при понижении до которой содержащийся в воздухе водяной пар достигнет насыщения.
  • f - Относительная влажность воздуха - влажноcть воздуха, измеренная на высоте 2 м над землей.
  • Te - Эффективная температура - температура, которую ощущает одетый по сезону человек в тени. Характеристика душности погоды. При расчете учитывается влияние влажности воздуха и скорости ветра на теплоощущения человека.
  • Tes - Эффективная температура на солнце - температура, которую ощущает человек, с поправкой на солнечный нагрев. Характеристика знойности погоды. Зависит от высоты солнца над горизонтом, облачности и скорости ветра. Ночью, в пасмурную погоду, а также при ветре 12 м/с и более поправка равна нулю.
  • P - Атмосферное давление - приведенное к уровню моря атмосферное давление.
  • Po - Атмосферное давление - измеренное на уровне метеостанции атмосферное давление.
  • Tmin - Минимальная температура - минимум температуры воздуха на высоте 2 м над землей.
  • Tmax - Максимальная температура - максимум температуры воздуха на высоте 2 м над землей.
  • R - Количество осадков - Количество выпавших осадков за период времени, мм. При наведении курсора мыши на число - период времени, за который выпало указанное количество осадков.
  • R24 - Количество осадков - Количество выпавших осадков за 24 часа, мм.
  • S - Снежный покров - Высота снежного покрова, см. При наведении курсора мыши на число - состояние снежного покрова и степень покрытия местности в баллах.